Date,TemperatureHighF,TemperatureAvgF,TemperatureLowF,DewpointHighF,DewpointAvgF,DewpointLowF,HumidityHigh,HumidityAvg,HumidityLow,PressureMaxIn,PressureMinIn,WindSpeedMaxMPH,WindSpeedAvgMPH,GustSpeedMaxMPH,PrecipitationSumIn
2013-10-1,64,51,41,53,47,41,98,87,61,29.87,29.75,6,1,0,0.01
2013-10-2,64,47,32,48,42,32,98,84,54,29.87,29.78,6,1,0,0.01
2013-10-3,64,51,39,50,45,39,98,80,52,30.05,29.87,5,1,0,0.01
2013-10-4,73,51,32,50,41,32,98,75,31,30.13,29.94,5,0,0,0.00
2013-10-5,80,54,31,51,42,30,98,71,24,30.00,29.81,3,0,0,0.00
2013-10-6,79,55,34,54,43,34,98,70,25,29.87,29.70,6,1,0,0.00
2013-10-7,64,51,41,51,44,39,96,78,53,29.85,29.72,7,1,0,0.00
2013-10-8,60,48,34,48,43,34,98,84,58,29.87,29.65,5,1,0,0.00
2013-10-9,64,49,32,47,42,32,98,80,49,29.67,29.56,6,1,0,0.01
2013-10-10,66,50,36,49,44,36,98,82,53,29.74,29.62,4,1,0,0.00
2013-10-11,64,47,32,51,42,31,98,84,59,29.84,29.72,4,1,0,0.00
2013-10-12,58,46,35,52,44,35,98,94,73,29.80,29.72,4,1,0,0.04
2013-10-13,65,48,36,49,43,36,98,85,51,29.93,29.80,4,1,0,0.00
2013-10-14,71,48,30,48,40,30,98,78,38,30.01,29.84,4,0,0,0.00
2013-10-15,74,49,29,49,39,28,98,73,31,29.96,29.75,4,0,0,0.00
2013-10-16,72,48,30,48,38,29,98,73,30,29.86,29.75,3,0,0,0.00
2013-10-17,73,50,31,50,42,30,98,77,42,29.91,29.74,3,0,0,0.00
2013-10-18,77,52,32,53,44,32,98,78,40,29.87,29.70,3,0,0,0.00
2013-10-19,76,52,33,51,43,32,98,77,36,29.88,29.74,3,0,0,0.00
2013-10-20,75,51,32,53,44,32,98,80,45,29.85,29.66,2,0,0,0.00
2013-10-21,78,57,33,55,47,33,98,74,40,29.80,29.62,3,0,0,0.00
2013-10-22,79,54,34,54,45,33,98,77,39,29.78,29.61,3,0,0,0.00
2013-10-23,76,52,34,53,45,33,98,79,43,29.75,29.59,3,0,0,0.00
2013-10-24,74,51,33,52,43,32,98,78,41,29.77,29.66,3,0,0,0.00
2013-10-25,73,50,33,51,43,32,98,79,44,29.91,29.77,2,0,0,0.00
2013-10-26,73,50,32,51,42,31,98,79,45,29.98,29.77,4,0,0,0.00
2013-10-27,61,46,31,50,42,31,98,87,61,29.77,29.44,7,1,0,0.00
2013-10-28,58,48,35,48,44,34,98,87,64,29.55,29.38,3,0,0,0.00
2013-10-29,61,43,27,44,36,27,98,81,52,29.73,29.54,4,0,0,0.00
2013-10-30,64,47,36,48,41,35,98,81,52,29.90,29.74,4,0,0,0.00
2013-10-31,69,49,36,50,43,36,98,81,51,29.99,29.85,3,0,0,0.00